User: anonymous   Login
Location: Ostrava
(49.8330°N, 18.2830°E)
Time: 15:52:31
(UTC+02:00)
Language:

Cosmos 1400 Rocket - Orbit

View from above orbital plane
View from above orbital plane
View from above satellite
View from above satellite

Ground track
Ground track

The orbit data is extracted from the following two-line orbital elements,

1 13403U 82079B   15212.19418364  .00000453  00000-0  29480-4 0  9993
2 13403 081.1713 335.6792 0035165 022.8350 337.4427 15.05482968793310
Epoch (UTC): 31 July 2015 04:39:37
Eccentricity: 0.0035165
inclination: 81.1713°
perigee height: 525 km
apogee height: 574 km
right ascension of ascending node: 335.6792°
argument of perigee: 22.8350°
revolutions per day: 15.05482968
mean anomaly at epoch: 337.4427°
orbit number at epoch: 79331

The dashed part of the orbit path shows where the satellite is in the earth's shadow,  

DLR